Tracking 30703 objects as of 12-Jun-2025
HD Live streaming from Space Station
objects crossing your sky now

BREEZE-M DEB

Track BREEZE-M DEB now!
10-day predictions


NORAD ID: 38592
Int'l Code: 2008-011AP
Perigee: 783.0 km
Apogee: 25,720.4 km
Inclination: 49.0 °
Period: 455.9 minutes
Semi major axis: 19622 km
RCS: 0.003 m2 (small)
Launch date: March 14, 2008
Source: Commonwealth of Independent States (former USSR) (CIS)
Launch site: TYURATAM MISSILE AND SPACE COMPLEX (TTMTR)

Note: This is SATELLITE DEBRIS
Your satellite tracking list
Your tracking list is empty




NASA's NSSDC Master Catalog

Two Line Element Set (TLE):
1 38592U 08011AP  25161.01789681 -.00000289  00000-0 -31641-2 0  9990
2 38592  48.9935  10.9320 6354226 251.9913 344.9425  3.15838101159613
Source of the keplerian elements: AFSPC